Change the Weather History Date:

Monday, June 25, 2012

  Actual Average Record
Temperature  
Mean Temperature 78 °F -  
Max Temperature 89 °F 88 °F 103 °F (1952)
Min Temperature 68 °F 63 °F 55 °F (1979)
Cooling Degree Days 14    
Growing Degree Days 28 (Base 50)    
Moisture  
Dew Point 70 °F    
Average Humidity 79    
Maximum Humidity 100    
Minimum Humidity 49    
Precipitation  
Precipitation 1.04 in - - ()
Sea Level Pressure  
Sea Level Pressure 29.79 in    
Wind  
Wind Speed 2 mph (SW)    
Max Wind Speed 17 mph    
Max Gust Speed 31 mph    
Visibility 10 miles    
Events      
Averages and records for this station are not official NWS values.
T = Trace of Precipitation, MM = Missing Value Source: NWS Daily Summary

Daily Weather History Graph

Daily Weather History Graph

Search for Another Location

Airport or City:

Trip Planner

Search our weather history database for the weather conditions in past years. The results will help you decide how hot, cold, wet, or windy it might be!

Date:

Astronomy

Jun. 25, 2012 Rise Set
Actual Time 5:59 AM EDT 8:32 PM EDT
Civil Twilight 5:29 AM EDT 9:02 PM EDT
Nautical Twilight 4:52 AM EDT 9:40 PM EDT
Astronomical Twilight 4:11 AM EDT 10:21 PM EDT
Moon 11:54 AM EDT (6/25) No Moon Set
Length of Visible Light 15h 33m
Length of Day
14h 33m
Waxing Crescent, 34% of the Moon is Illuminated
Jun 25
Waxing Crescent
Jun 26
First Quarter
Jul 3
Full
Jul 10
Last Quarter
Jul 19
New

Hourly Weather History & Observations

Time (EDT) Temp. Heat Index Dew Point Humidity Pressure Visibility Wind Dir Wind Speed Gust Speed Precip Events Conditions
12:15 AM 73.4 °F - 69.8 °F 88% 29.94 in 10.0 mi Calm Calm - N/A   Mostly Cloudy
12:35 AM 73.4 °F - 69.8 °F 88% 29.93 in 10.0 mi Calm Calm - N/A   Scattered Clouds
12:55 AM 73.4 °F - 69.8 °F 88% 29.92 in 10.0 mi Calm Calm - N/A   Mostly Cloudy
1:15 AM 71.6 °F - 69.8 °F 94% 29.91 in 10.0 mi Calm Calm - N/A   Scattered Clouds
1:35 AM 71.6 °F - 71.6 °F 100% 29.90 in 10.0 mi Calm Calm - N/A   Scattered Clouds
1:55 AM 71.6 °F - 71.6 °F 100% 29.90 in 10.0 mi Calm Calm - N/A   Clear
2:15 AM 71.6 °F - 71.6 °F 100% 29.89 in 10.0 mi Calm Calm - N/A   Clear
2:35 AM 69.8 °F - 69.8 °F 100% 29.88 in 10.0 mi Calm Calm - N/A   Clear
2:55 AM 69.8 °F - 69.8 °F 100% 29.87 in 10.0 mi Calm Calm - N/A   Clear
3:15 AM 69.8 °F - 69.8 °F 100% 29.87 in 10.0 mi Calm Calm - N/A   Scattered Clouds
3:35 AM 69.8 °F - 69.8 °F 100% 29.87 in 10.0 mi Calm Calm - N/A   Mostly Cloudy
3:55 AM 69.8 °F - 69.8 °F 100% 29.87 in 10.0 mi Calm Calm - N/A   Scattered Clouds
4:15 AM 69.8 °F - 69.8 °F 100% 29.86 in 10.0 mi Calm Calm - N/A   Mostly Cloudy
4:35 AM 69.8 °F - 69.8 °F 100% 29.86 in 10.0 mi Calm Calm - N/A   Overcast
4:55 AM 69.8 °F - 69.8 °F 100% 29.86 in 10.0 mi Calm Calm - N/A   Overcast
5:15 AM 69.8 °F - 69.8 °F 100% 29.86 in 10.0 mi Calm Calm - N/A   Overcast
5:35 AM 71.6 °F - 71.6 °F 100% 29.86 in 7.0 mi Calm Calm - N/A   Overcast
5:55 AM 71.6 °F - 71.6 °F 100% 29.86 in 7.0 mi Calm Calm - N/A   Mostly Cloudy
6:15 AM 69.8 °F - 69.8 °F 100% 29.86 in 7.0 mi Calm Calm - N/A   Mostly Cloudy
6:35 AM 69.8 °F - 69.8 °F 100% 29.86 in 10.0 mi Calm Calm - N/A   Scattered Clouds
6:55 AM 71.6 °F - 71.6 °F 100% 29.87 in 10.0 mi Calm Calm - N/A   Scattered Clouds
7:15 AM 71.6 °F - 71.6 °F 100% 29.86 in 7.0 mi Calm Calm - N/A   Mostly Cloudy
7:35 AM 73.4 °F - 73.4 °F 100% 29.86 in 7.0 mi Calm Calm - N/A   Overcast
7:55 AM 73.4 °F - 73.4 °F 100% 29.85 in 10.0 mi Calm Calm - N/A   Overcast
8:15 AM 77.0 °F - 73.4 °F 89% 29.85 in 10.0 mi West 3.5 mph - N/A   Mostly Cloudy
8:35 AM 78.8 °F - 73.4 °F 83% 29.84 in 10.0 mi Calm Calm - N/A   Scattered Clouds
8:55 AM 78.8 °F - 71.6 °F 78% 29.84 in 10.0 mi West 4.6 mph - N/A   Scattered Clouds
9:15 AM 78.8 °F - 73.4 °F 83% 29.84 in 10.0 mi WSW 3.5 mph - N/A   Mostly Cloudy
9:35 AM 80.6 °F 85.4 °F 73.4 °F 79% 29.84 in 10.0 mi WSW 4.6 mph - N/A   Overcast
9:55 AM 80.6 °F 85.4 °F 73.4 °F 79% 29.83 in 10.0 mi West 4.6 mph - N/A   Mostly Cloudy
10:15 AM 80.6 °F 84.6 °F 71.6 °F 74% 29.83 in 10.0 mi West 3.5 mph - N/A   Mostly Cloudy
10:35 AM 80.6 °F 84.6 °F 71.6 °F 74% 29.82 in 10.0 mi Calm Calm - N/A   Mostly Cloudy
10:55 AM 82.4 °F 87.2 °F 71.6 °F 70% 29.82 in 10.0 mi SSW 6.9 mph - N/A   Mostly Cloudy
11:15 AM 82.4 °F 87.2 °F 71.6 °F 70% 29.82 in 10.0 mi SW 4.6 mph - N/A   Scattered Clouds
11:35 AM 82.4 °F 87.2 °F 71.6 °F 70% 29.81 in 10.0 mi SW 5.8 mph - N/A   Mostly Cloudy
11:55 AM 82.4 °F 87.2 °F 71.6 °F 70% 29.81 in 10.0 mi Calm Calm - N/A   Mostly Cloudy
12:15 PM 84.2 °F 89.6 °F 71.6 °F 66% 29.80 in 10.0 mi SW 5.8 mph - N/A   Mostly Cloudy
12:35 PM 84.2 °F 88.4 °F 69.8 °F 62% 29.80 in 10.0 mi WSW 6.9 mph - N/A   Mostly Cloudy
12:55 PM 86.0 °F 91.8 °F 71.6 °F 62% 29.78 in 10.0 mi SW 4.6 mph - N/A   Scattered Clouds
1:15 PM 86.0 °F 91.8 °F 71.6 °F 62% 29.77 in 10.0 mi SW 8.1 mph - N/A   Clear
1:35 PM 86.0 °F 90.4 °F 69.8 °F 58% 29.77 in 10.0 mi SW 4.6 mph - N/A   Scattered Clouds
1:55 PM 86.0 °F 90.4 °F 69.8 °F 58% 29.76 in 10.0 mi SSW 5.8 mph - N/A   Scattered Clouds
2:15 PM 86.0 °F 91.8 °F 71.6 °F 62% 29.75 in 10.0 mi SSW 8.1 mph - N/A   Mostly Cloudy
2:35 PM 86.0 °F 91.8 °F 71.6 °F 62% 29.74 in 10.0 mi SW 8.1 mph - N/A   Mostly Cloudy
2:55 PM 87.8 °F 93.8 °F 71.6 °F 58% 29.73 in 10.0 mi West 6.9 mph - N/A   Scattered Clouds
3:15 PM 87.8 °F 92.6 °F 69.8 °F 55% 29.72 in 10.0 mi SW 6.9 mph - N/A   Clear
3:35 PM 87.8 °F 91.4 °F 68.0 °F 52% 29.71 in 10.0 mi West 5.8 mph - N/A   Clear
3:55 PM 87.8 °F 91.4 °F 68.0 °F 52% 29.71 in 10.0 mi Calm Calm - N/A   Scattered Clouds
4:15 PM 87.8 °F 91.4 °F 68.0 °F 52% 29.71 in 10.0 mi SW 6.9 mph - N/A   Scattered Clouds
4:35 PM 89.6 °F 93.4 °F 68.0 °F 49% 29.70 in 10.0 mi WSW 6.9 mph - N/A   Clear
4:55 PM 89.6 °F 93.4 °F 68.0 °F 49% 29.70 in 10.0 mi SW 4.6 mph - N/A   Scattered Clouds
5:15 PM 87.8 °F 91.4 °F 68.0 °F 52% 29.70 in 10.0 mi SW 8.1 mph 16.1 mph N/A   Scattered Clouds
5:35 PM 87.8 °F 91.4 °F 68.0 °F 52% 29.70 in 10.0 mi SW 8.1 mph - N/A   Scattered Clouds
5:55 PM 87.8 °F 92.6 °F 69.8 °F 55% 29.69 in 10.0 mi SSW 9.2 mph - N/A   Scattered Clouds
6:15 PM 87.8 °F 92.6 °F 69.8 °F 55% 29.69 in 10.0 mi SW 8.1 mph - N/A   Mostly Cloudy
6:35 PM 87.8 °F 92.6 °F 69.8 °F 55% 29.69 in 10.0 mi SSW 5.8 mph - N/A   Mostly Cloudy
6:55 PM 87.8 °F 92.6 °F 69.8 °F 55% 29.68 in 10.0 mi SSW 11.5 mph 20.7 mph N/A   Mostly Cloudy
7:15 PM 86.0 °F 91.8 °F 71.6 °F 62% 29.69 in 10.0 mi SSW 6.9 mph - N/A   Scattered Clouds
7:35 PM 84.2 °F 89.6 °F 71.6 °F 66% 29.69 in 10.0 mi SW 10.4 mph - N/A   Clear
7:55 PM 82.4 °F 87.2 °F 71.6 °F 70% 29.69 in 10.0 mi SSW 9.2 mph - N/A   Clear
8:15 PM 82.4 °F 87.2 °F 71.6 °F 70% 29.69 in 10.0 mi SW 6.9 mph - N/A   Clear
8:35 PM 82.4 °F 86.3 °F 69.8 °F 66% 29.69 in 10.0 mi SSW 6.9 mph - N/A   Scattered Clouds
8:55 PM 80.6 °F 83.9 °F 69.8 °F 70% 29.69 in 10.0 mi SSW 5.8 mph - N/A   Scattered Clouds
9:15 PM 80.6 °F 83.9 °F 69.8 °F 70% 29.67 in 10.0 mi SW 8.1 mph - N/A   Clear
9:35 PM 80.6 °F 83.9 °F 69.8 °F 70% 29.67 in 10.0 mi SSW 5.8 mph - N/A   Clear
9:55 PM 80.6 °F 83.9 °F 69.8 °F 70% 29.69 in 10.0 mi SSW 5.8 mph - N/A   Scattered Clouds
10:15 PM 77.0 °F - 69.8 °F 78% 29.73 in 10.0 mi NNE 17.3 mph 24.2 mph N/A   Overcast
10:35 PM 69.8 °F - 69.8 °F 100% 29.76 in 0.8 mi East 6.9 mph 31.1 mph 0.73 in   Overcast
10:55 PM 68.0 °F - 68.0 °F 100% 29.77 in 3.0 mi South 8.1 mph - 1.03 in   Overcast
11:15 PM 68.0 °F - 68.0 °F 100% 29.77 in 10.0 mi East 4.6 mph - 0.01 in   Overcast
11:35 PM 68.0 °F - 68.0 °F 100% 29.80 in 10.0 mi Calm Calm - 0.01 in   Overcast
11:55 PM 68.0 °F - 68.0 °F 100% 29.80 in 10.0 mi Calm Calm - N/A   Overcast